FENGYUN 1C DEB, 31566

Orbit data source: Space-Track

FENGYUN 1C DEB, 31566 is space debris in SSO originally from a launch on Mon, 10 May 1999 UTC launched from the Taiyaun Space Center, China (TSC). Fengyun 1C debris stems from the Chinese weather satellite Fengyun-1C, which was intentionally destroyed by a Chinese anti-satellite missile in 2007. This event dramatically increased the amount of space debris, with thousands of trackable fragments posing hazards to satellites and human spaceflight. The Fengyun 1C debris cloud has become a focal point in discussions about space sustainability and the need for international regulations to prevent the creation of new debris.

Loading next visibility...
Identifier
31566, 1999-025BZH
Orbit
SSO
Country
Flag of CNCN / PRC
Related business
Manufacturer
Unknown
Mission
Spacecraft
Bus & Motor
Unknown
Mass
Unknown
Launch date (UTC)
1999-05-10 (27 years ago)
Launch vehicle
Unknown
Launch site
Taiyaun Space Center, China (TSC)
Object type
Payload
Rocket body
Debris
Shape & HBR
Unknown shape, 0.1 m
Radar Cross Section
Small (<0.1 m²)

Expand to show TLE details & history
Last TLE update: 1 day ago

TLE from 1 day ago
0 FENGYUN 1C DEB
1 31566U 99025BZH 26207.18328044  .00005155  00000-0  16477-2 0  9996
2 31566  98.9390 280.5112 0024839  56.4354 330.8880 14.39918631996338
Epoch: 2026-07-26T04:23Z
TLE epoch observation values (Epoch: 2026-07-26T04:23:55.430Z)
Latitude
26.86655°
Longitude
-93.90053°
Altitude
746.574 km
Speed
7.492 km/s
True Right ascension
18h 23m 51s
True Declination
26° 43' 41"
Sunlit
Object was in full shadow at epoch
Visualization orbit readout
Latitude
Unknown
Longitude
Unknown
Altitude
Unknown
Speed
Unknown
Apparent Right ascension
Unknown
Apparent Declination
Unknown
Sunlit
N/A
Visualization observer readout
Local Sidereal Time
22:27:53
Azimuth
Unknown
Elevation
Unknown
Doppler factor
Unknown
Orbital elements
Apogee altitude
773.631 km
Perigee altitude
738.19 km
Semi-major axis
7,134.048 km
Eccentricity
0.00248
Inclination
98.939°
RAAN
280.5112°
Arg. of periapsis
56.4354°
True anomaly
330.74914°
Mean anomaly
330.888°
Eccentric anomaly
330.81861°
Mean motion
3.60196 °/min
Orbital period
99.95 mins
BSTAR
0.0016477
Loading maneuver chart data...
Computing Atmospheric mass density...

Documentation

Showing up to 5 results
|